Flag for Japan Weather past 2 weeks in Yokohama, Japan

Now
55 °F

Passing clouds.


Feels Like: 52 °F
Forecast: 41 / 49 °F
Wind: 15 mph from North

Location: Tokyo International Airport

Current Time: Mar 2, 2015 at 2:39:55 PM

Latest Report: Mar 2, 2015 at 2:00 PM


Visibility: N/A

Pressure: 29.86 "Hg

Humidity: 26%

Dew point: 21 °F

Location of YokohamaLocation

Historic Weather in Yokohama — Graph

°F

Yokohama temperature yesterday

Maximum temperature yesterday: 50 °F (at 11:00 PM)
Minimum temperature yesterday: 43 °F (at 8:00 PM)
Average temperature yesterday: 46 °F

Past Weeks' High & Low Weather Summary

 TemperatureHumidityPressure
High66 °F (Feb 23, 2:30 PM)100% (Feb 22, 11:47 PM)30.39 "Hg (Feb 22, 11:47 PM)
Low37 °F (Feb 16, 4:30 AM)19% (Feb 16, 3:30 PM)29.45 "Hg (Mar 1, 8:50 PM)
Average46 °F68%29.96 "Hg
* Reported Feb 15 1:00 PM — Mar 2 1:30 PM, Yokohama, Weather by CustomWeather, © 2015

Note: Actual official high and low records may vary slightly from our data, if they occured in-between our weather recording intervals... More about our weather records

Advertising

Yokohama weather history for previous 24 hours

 ConditionsComfort  
Time TempWeatherWind HumidityBarometerVisibility
1:30 PM
Mon, Mar 2
54 °FPassing clouds.15 mph26%29.86 "HgN/A
1:00 PM54 °FPassing clouds.17 mph33%29.86 "HgN/A
12:30 PM54 °FScattered clouds.18 mph33%29.86 "HgN/A
12:00 PM52 °FScattered clouds.20 mph32%29.86 "HgN/A
11:30 AM54 °FScattered clouds.20 mph33%29.86 "HgN/A
11:00 AM52 °FPassing clouds.21 mph32%29.86 "HgN/A
10:30 AM52 °FPassing clouds.21 mph30%29.83 "HgN/A
10:00 AM52 °FPassing clouds.21 mph32%29.83 "HgN/A
9:30 AM52 °FPassing clouds.25 mph28%29.83 "HgN/A
8:30 AM50 °FPassing clouds.20 mph32%29.80 "HgN/A
8:00 AM50 °FPassing clouds.17 mph35%29.77 "HgN/A
7:30 AM48 °FPassing clouds.17 mph43%29.77 "HgN/A
7:00 AM48 °FPassing clouds.18 mph46%29.74 "HgN/A
6:30 AM46 °FPassing clouds.17 mph46%29.71 "HgN/A
6:00 AM46 °FPassing clouds.18 mph50%29.68 "HgN/A
5:30 AM48 °FPassing clouds.21 mph40%29.68 "HgN/A
4:30 AM48 °FPassing clouds.18 mph40%29.62 "HgN/A
4:00 AM48 °FPassing clouds.23 mph43%29.62 "HgN/A
3:30 AM48 °FPassing clouds.22 mph46%29.59 "HgN/A
3:00 AM48 °FPassing clouds.22 mph50%29.59 "HgN/A
2:30 AM50 °FLight rain. Passing clouds.23 mph50%29.56 "HgN/A
2:00 AM50 °FPassing clouds.22 mph50%29.56 "HgN/A
1:30 AM50 °FPassing clouds.22 mph58%29.53 "HgN/A
1:00 AM50 °FScattered showers. Passing clouds.21 mph58%29.53 "HgN/A
12:30 AM52 °FPassing clouds.29 mph54%29.50 "HgN/A
12:04 AM50 °FPassing clouds.18 mph67%29.47 "HgN/A
12:00 AM50 °FPassing clouds.18 mph67%29.47 "HgN/A
11:30 PM
Sun, Mar 1
50 °FPassing clouds.16 mph71%29.47 "HgN/A
11:02 PM50 °FPassing clouds.22 mph71%29.45 "HgN/A
11:00 PM50 °FPassing clouds.21 mph71%29.45 "HgN/A
10:30 PM48 °FPassing clouds.22 mph82%29.45 "HgN/A
10:00 PM46 °FLight rain. Passing clouds.18 mph87%29.45 "HgN/A
9:30 PM46 °FSprinkles. Partly cloudy.15 mph87%29.45 "HgN/A
9:00 PM45 °FRain showers. Fog.22 mph93%29.45 "Hg3 mi
8:50 PM45 °FRain showers. Fog.18 mph93%29.45 "Hg3 mi
8:30 PM45 °FSprinkles. Fog.21 mph93%29.47 "Hg2 mi
8:01 PM43 °FRain showers. Fog.25 mph93%29.50 "Hg2 mi
8:00 PM43 °FRain showers. Fog.26 mph93%29.50 "Hg2 mi
7:30 PM45 °FLots of rain. Fog.22 mph93%29.47 "Hg1 mi
7:00 PM46 °FRain showers. Fog.22 mph93%29.50 "Hg2 mi
6:49 PM46 °FRain showers. Fog.17 mph93%29.53 "Hg1 mi
6:30 PM45 °FRain. Fog.17 mph100%29.56 "Hg1 mi
6:00 PM45 °FHeavy rain. Fog.13 mph100%29.62 "Hg1 mi
5:47 PM45 °FHeavy rain. Fog.12 mph100%29.62 "Hg1 mi
5:30 PM46 °FRain. Fog.14 mph93%29.65 "Hg1 mi
5:00 PM45 °FRain. Fog.9 mph100%29.68 "Hg1 mi
4:30 PM45 °FRain. Fog.12 mph100%29.68 "Hg1 mi
4:00 PM45 °FLight rain. Fog.8 mph93%29.74 "Hg2 mi
3:30 PM45 °FLight rain. Fog.9 mph93%29.77 "Hg3 mi
3:00 PM45 °FLight rain. Fog.7 mph93%29.80 "Hg4 mi
2:30 PM45 °FLight rain. Fog.5 mph93%29.83 "Hg4 mi
2:00 PM45 °FLight rain. Fog.5 mph93%29.86 "Hg4 mi
Weather by CustomWeather, © 2015

See weather overviewHow to use our weather pages